Location: Wharf Road Observatory
(44.7802°N, 65.6070°W)
Time: 01:03:16
(UTC-04:00)

CUTE 1.7 + AOD 2 - Visible Passes

Search period start: 27 February 2024 00:00
Search period end: 08 March 2024 00:00
Orbit: 574 x 589 km, 97.7° (Epoch: 26 February)

Date Brightness Start Highest point End Pass type
(mag) Time Alt. Az. Time Alt. Az. Time Alt. Az.
27 Feb ? 04:04:11 10° NNE 04:04:34 12° NNE 04:04:34 12° NNE visible
28 Feb ? 04:09:44 10° N 04:10:19 14° N 04:10:19 14° N visible
29 Feb ? 04:15:17 10° N 04:16:03 15° N 04:16:03 15° N visible
01 Mar ? 04:20:50 10° N 04:21:46 16° N 04:21:46 16° N visible
02 Mar ? 04:26:22 10° N 04:27:29 18° N 04:27:29 18° N visible
03 Mar ? 04:31:54 10° N 04:33:10 19° N 04:33:10 19° N visible
04 Mar ? 04:37:26 10° N 04:38:51 19° NNW 04:38:51 19° NNW visible
05 Mar ? 03:07:57 10° NE 03:08:09 11° NE 03:08:09 11° NE visible
05 Mar ? 04:42:58 10° N 04:44:31 20° NNW 04:44:31 20° NNW visible
06 Mar ? 03:13:15 10° NE 03:13:47 13° NE 03:13:47 13° NE visible
06 Mar ? 04:48:30 10° N 04:50:11 20° NNW 04:50:11 20° NNW visible
07 Mar ? 03:18:33 10° NE 03:19:26 15° NE 03:19:26 15° NE visible
07 Mar ? 04:54:02 10° NNW 04:55:48 20° NNW 04:55:48 20° NNW visible
